Weather in Karasi

Russia / Kurgan Oblast     55°25′49″N   64°10′40″E
temp.,
°C
wind,
m/s
gust,
m/s
humid.,
%
clouds,
%
prec.,
mm/h
press.,
hPa
HPBL,
m
10 august, wed
wed1023:00+18ene22730 0.0 101816
02:00+17nnw337559 0.0 101837
05:00+16n348225 0.0 101844
08:00+19nnw377762 0.0 1019211
11:00+23n5762100 0.1 1018585
14:00+28n564456 0.0 10182045
17:00+25nne245252 0.0 1017463
20:00+23wnw336139 0.0 101727
11 august, thu
thu1123:00+18nnw11762 0.3 101711
02:00+18ene11772 0.1 101711
05:00+16n11860 0.1 101711
08:00+21n01705 0.0 1018179
11:00+26wsw10525 0.0 1018791
14:00+28wsw214111 0.0 10171865
17:00+28wsw22406 0.0 10162185
20:00+24ssw335964 0.0 101523
12 august, fri
fri1223:00+17nnw229499 0.2 101647
02:00+17w3694100 1.4 1016157
05:00+15nw51093100 1.4 1016323
08:00+15nw697943 0.0 1018581
11:00+20nw69530 0.0 10171288
14:00+23wnw7104199 0.0 10162483
17:00+22wnw61044100 0.0 10152405
20:00+18wnw485877 0.0 1016187
13 august, sat
sat1323:00+15w4116812 0.0 1016215
02:00+14w410725 0.0 1015199
05:00+13w410785 0.0 1015203
08:00+17w610685 0.0 1014403
11:00+23w8105325 0.0 10131311
14:00+20wnw711625 0.0 10131244
17:00+22nw71147100 0.0 10131247
20:00+19nnw4105553 0.0 1014292
14 august, sun
sun1423:00+15nnw613552 0.0 1016450
02:00+11nnw37701 0.0 1017112
05:00+9nw37775 0.0 1018131
08:00+14nw510603 0.0 1019582
11:00+18nw79431 0.0 10191658
14:00+20nw79385 0.0 10182000
17:00+20nnw693712 0.0 10192314
20:00+15nnw35545 0.0 101984